Location: Indian Hills
(32.9760°N, 85.9450°W)
Time: 22:33:30
(UTC+00:00)

Cosmos 2237 Rocket - Pass Details

Date: 09 December 2019
Orbit: 836 x 849 km, 71.0° (Epoch: 24 January)

Event Time Altitude Azimuth Distance (km) Brightness Sun altitude
Exits shadow 09:55:59 12° 178° (S) 2,278 4.5 -32.5°
Drops below altitude 10° 09:56:23 10° 177° (S) 2,425 4.7 -32.4°
Sets 09:58:54 0° 173° (S) 3,369 5.5 -31.9°
